QPF
0.05 0.05 0.04 0.02 0.01 0.00 0.00 0.00 0.00 0.00 0.00 0.00 0.00 0.00 0.00 0.00 0.00 0.00 0.00 0.00 0.00 0.00 0.00 0.00 0.00 0.00 0.00 0.00 0.00 0.00 0.01 0.03 0.06 0.07 0.06 0.06 0.05 0.05 0.04 0.03 0.03 0.03 0.02 0.01
0.05 0.03 0.02 0.01 0.01 0.01 0.00 0.00 0.00 0.00 0.00 0.00 0.00 0.00 0.00 0.00 0.00 0.00 0.00 0.00 0.00 0.00 0.00 0.00 0.00 0.00 0.00 0.00 0.00 0.00 0.00 0.01 0.03 0.03 0.05 0.09 0.12 0.11 0.10 0.07 0.05 0.04 0.03 0.02
0.03 0.02 0.01 0.02 0.02 0.01 0.01 0.00 0.00 0.00 0.00 0.00 0.00 0.00 0.00 0.00 0.00 0.00 0.00 0.00 0.00 0.00 0.00 0.00 0.00 0.00 0.00 0.00 0.00 0.00 0.00 0.01 0.03 0.04 0.08 0.10 0.11 0.09 0.07 0.04 0.03 0.03 0.04 0.04
0.03 0.01 0.01 0.01 0.02 0.01 0.01 0.00 0.00 0.00 0.00 0.00 0.00 0.00 0.00 0.00 0.00 0.00 0.00 0.00 0.00 0.00 0.00 0.00 0.00 0.00 0.00 0.00 0.00 0.00 0.01 0.02 0.03 0.04 0.05 0.05 0.04 0.03 0.03 0.04 0.05 0.06 0.07 0.05
0.02 0.01 0.00 0.01 0.01 0.01 0.00 0.00 0.00 0.00 0.00 0.00 0.00 0.00 0.00 0.00 0.00 0.00 0.00 0.00 0.00 0.00 0.00 0.00 0.00 0.00 0.00 0.00 0.00 0.00 0.01 0.02 0.03 0.04 0.04 0.05 0.04 0.04 0.06 0.06 0.06 0.06 0.06 0.05
0.01 0.01 0.00 0.00 0.00 0.00 0.00 0.00 0.00 0.00 0.00 0.00 0.00 0.00 0.00 0.00 0.00 0.00 0.00 0.00 0.00 0.00 0.00 0.00 0.00 0.00 0.00 0.00 0.00 0.00 0.00 0.01 0.02 0.03 0.04 0.04 0.03 0.03 0.04 0.03 0.04 0.04 0.06 0.06
0.02 0.01 0.00 0.00 0.00 0.00 0.00 0.00 0.00 0.00 0.00 0.00 0.00 0.00 0.00 0.00 0.00 0.00 0.00 0.00 0.00 0.00 0.00 0.00 0.00 0.00 0.00 0.00 0.00 0.00 0.00 0.00 0.01 0.02 0.03 0.03 0.03 0.03 0.04 0.04 0.05 0.06 0.05 0.05
0.02 0.01 0.00 0.00 0.00 0.00 0.00 0.00 0.00 0.00 0.00 0.00 0.00 0.00 0.00 0.00 0.00 0.00 0.00 0.00 0.00 0.00 0.00 0.00 0.00 0.00 0.00 0.00 0.00 0.00 0.00 0.00 0.01 0.01 0.02 0.02 0.02 0.03 0.04 0.05 0.05 0.06 0.07 0.08
0.00 0.00 0.00 0.00 0.00 0.00 0.00 0.00 0.00 0.00 0.00 0.00 0.00 0.00 0.00 0.00 0.00 0.00 0.00 0.00 0.00 0.00 0.00 0.00 0.00 0.00 0.00 0.00 0.00 0.00 0.00 0.00 0.01 0.01 0.02 0.02 0.02 0.03 0.04 0.04 0.05 0.06 0.06 0.06
0.00 0.00 0.00 0.00 0.00 0.00 0.00 0.00 0.00 0.00 0.00 0.00 0.00 0.00 0.00 0.00 0.00 0.00 0.00 0.00 0.00 0.00 0.00 0.00 0.00 0.00 0.00 0.00 0.00 0.00 0.00 0.00 0.01 0.01 0.02 0.02 0.02 0.03 0.04 0.04 0.04 0.04 0.05 0.04
0.00 0.00 0.01 0.00 0.00 0.00 0.00 0.00 0.00 0.00 0.00 0.00 0.00 0.00 0.00 0.00 0.00 0.00 0.00 0.00 0.00 0.00 0.00 0.00 0.00 0.00 0.00 0.00 0.00 0.01 0.01 0.01 0.01 0.01 0.02 0.02 0.02 0.03 0.03 0.03 0.04 0.04 0.03 0.03
0.00 0.00 0.01 0.00 0.00 0.00 0.00 0.00 0.00 0.00 0.00 0.00 0.00 0.00 0.00 0.00 0.00 0.00 0.00 0.00 0.00 0.00 0.00 0.00 0.00 0.00 0.00 0.01 0.01 0.01 0.01 0.01 0.01 0.02 0.02 0.02 0.02 0.03 0.03 0.03 0.03 0.03 0.03 0.03
0.00 0.00 0.00 0.01 0.00 0.00 0.00 0.00 0.00 0.00 0.00 0.00 0.00 0.00 0.00 0.00 0.00 0.00 0.00 0.00 0.00 0.00 0.00 0.00 0.00 0.00 0.01 0.01 0.02 0.02 0.02 0.02 0.02 0.02 0.02 0.02 0.03 0.03 0.03 0.03 0.03 0.02 0.02 0.02
0.00 0.00 0.00 0.00 0.00 0.00 0.00 0.00 0.00 0.00 0.01 0.00 0.00 0.00 0.00 0.00 0.00 0.00 0.00 0.00 0.00 0.00 0.00 0.00 0.00 0.01 0.02 0.03 0.03 0.03 0.04 0.04 0.04 0.04 0.03 0.03 0.03 0.03 0.03 0.03 0.02 0.02 0.02 0.02
0.00 0.00 0.00 0.00 0.00 0.00 0.00 0.00 0.00 0.00 0.00 0.00 0.00 0.00 0.00 0.00 0.00 0.00 0.00 0.00 0.00 0.01 0.01 0.01 0.00 0.01 0.04 0.06 0.06 0.06 0.06 0.05 0.05 0.05 0.04 0.03 0.03 0.03 0.03 0.03 0.03 0.02 0.02 0.02
0.00 0.00 0.00 0.00 0.00 0.00 0.00 0.00 0.00 0.00 0.00 0.00 0.00 0.00 0.00 0.00 0.00 0.00 0.00 0.00 0.01 0.01 0.00 0.00 0.01 0.02 0.03 0.04 0.06 0.06 0.06 0.06 0.06 0.05 0.04 0.03 0.03 0.03 0.03 0.03 0.03 0.03 0.03 0.03
0.00 0.00 0.00 0.00 0.00 0.00 0.00 0.00 0.00 0.00 0.00 0.00 0.01 0.00 0.00 0.00 0.00 0.01 0.01 0.01 0.01 0.01 0.00 0.00 0.01 0.02 0.03 0.04 0.05 0.05 0.04 0.04 0.05 0.06 0.05 0.04 0.04 0.03 0.04 0.04 0.05 0.05 0.05 0.05
0.00 0.00 0.01 0.00 0.00 0.00 0.00 0.00 0.00 0.00 0.00 0.00 0.00 0.00 0.01 0.01 0.01 0.00 0.01 0.01 0.01 0.01 0.00 0.00 0.01 0.01 0.02 0.03 0.03 0.02 0.02 0.04 0.05 0.06 0.07 0.07 0.07 0.07 0.07 0.09 0.09 0.09 0.07 0.06
0.00 0.01 0.02 0.01 0.00 0.00 0.00 0.00 0.00 0.00 0.00 0.00 0.01 0.01 0.01 0.00 0.00 0.00 0.01 0.00 0.00 0.00 0.01 0.01 0.01 0.01 0.02 0.02 0.03 0.03 0.05 0.07 0.07 0.11 0.14 0.13 0.14 0.14 0.14 0.14 0.13 0.11 0.08 0.06
0.01 0.01 0.03 0.02 0.01 0.00 0.00 0.00 0.00 0.00 0.01 0.01 0.01 0.01 0.01 0.00 0.00 0.01 0.01 0.00 0.00 0.00 0.01 0.01 0.01 0.01 0.03 0.05 0.06 0.06 0.08 0.10 0.11 0.16 0.21 0.18 0.18 0.19 0.17 0.13 0.10 0.07 0.05 0.04
0.02 0.02 0.03 0.02 0.02 0.00 0.00 0.00 0.00 0.02 0.03 0.01 0.01 0.01 0.01 0.01 0.00 0.00 0.00 0.00 0.00 0.01 0.01 0.02 0.03 0.04 0.06 0.09 0.10 0.12 0.15 0.16 0.17 0.19 0.21 0.19 0.16 0.16 0.13 0.09 0.07 0.05 0.04 0.03
0.00 0.01 0.01 0.01 0.01 0.00 0.00 0.00 0.01 0.01 0.01 0.01 0.01 0.01 0.01 0.01 0.01 0.01 0.01 0.01 0.01 0.01 0.02 0.03 0.05 0.07 0.09 0.13 0.15 0.16 0.17 0.17 0.16 0.16 0.16 0.15 0.13 0.11 0.08 0.07 0.05 0.04 0.03 0.02
0.00 0.00 0.00 0.00 0.00 0.00 0.01 0.01 0.01 0.01 0.01 0.01 0.00 0.00 0.00 0.01 0.01 0.01 0.01 0.01 0.01 0.02 0.03 0.05 0.05 0.06 0.07 0.09 0.12 0.16 0.17 0.16 0.15 0.14 0.13 0.12 0.09 0.07 0.06 0.05 0.03 0.02 0.01 0.01
0.01 0.00 0.01 0.01 0.01 0.01 0.02 0.02 0.02 0.01 0.01 0.01 0.00 0.00 0.00 0.00 0.01 0.01 0.01 0.01 0.01 0.01 0.02 0.03 0.04 0.06 0.08 0.09 0.11 0.13 0.13 0.12 0.11 0.10 0.09 0.08 0.06 0.05 0.03 0.02 0.01 0.01 0.00 0.00
0.01 0.01 0.01 0.01 0.01 0.01 0.01 0.01 0.01 0.00 0.00 0.00 0.00 0.00 0.00 0.01 0.01 0.01 0.02 0.02 0.02 0.02 0.02 0.03 0.03 0.04 0.05 0.05 0.06 0.06 0.06 0.05 0.05 0.05 0.04 0.03 0.02 0.02 0.01 0.01 0.00 0.00 0.00 0.00
0.01 0.01 0.01 0.01 0.01 0.01 0.01 0.01 0.00 0.00 0.00 0.00 0.00 0.00 0.00 0.01 0.01 0.01 0.02 0.03 0.04 0.04 0.04 0.03 0.03 0.02 0.03 0.03 0.03 0.02 0.02 0.02 0.02 0.01 0.01 0.01 0.01 0.00 0.00 0.00 0.00 0.00 0.00 0.00
MSLP
1011.81 1012.19 1012.50 1012.75 1012.98 1013.21 1013.46 1013.71 1013.93 1014.08 1014.12 1014.00 1013.71 1013.26 1012.67 1012.00 1011.31 1010.66 1010.08 1009.61 1009.25 1008.98 1008.78 1008.63 1008.50 1008.38 1008.28 1008.22 1008.23 1008.32 1008.52 1008.82 1009.22 1009.70 1010.22 1010.76 1011.29 1011.80 1012.28 1012.74 1013.19 1013.65 1014.13 1014.66
1011.74 1012.06 1012.32 1012.56 1012.81 1013.12 1013.48 1013.86 1014.21 1014.46 1014.54 1014.40 1014.02 1013.43 1012.67 1011.82 1010.97 1010.19 1009.56 1009.08 1008.76 1008.56 1008.45 1008.35 1008.25 1008.12 1007.97 1007.83 1007.74 1007.73 1007.85 1008.10 1008.48 1008.96 1009.52 1010.11 1010.70 1011.25 1011.77 1012.27 1012.75 1013.24 1013.75 1014.32
1011.62 1011.89 1012.11 1012.36 1012.66 1013.07 1013.55 1014.08 1014.55 1014.89 1015.00 1014.83 1014.36 1013.62 1012.68 1011.65 1010.64 1009.76 1009.07 1008.61 1008.34 1008.22 1008.19 1008.16 1008.09 1007.94 1007.73 1007.50 1007.29 1007.18 1007.20 1007.39 1007.74 1008.23 1008.82 1009.47 1010.12 1010.74 1011.32 1011.86 1012.38 1012.91 1013.46 1014.05
1011.50 1011.72 1011.93 1012.19 1012.57 1013.08 1013.70 1014.36 1014.96 1015.38 1015.51 1015.30 1014.73 1013.84 1012.73 1011.53 1010.39 1009.42 1008.69 1008.24 1008.03 1007.99 1008.04 1008.07 1008.01 1007.85 1007.57 1007.23 1006.91 1006.67 1006.58 1006.70 1007.01 1007.51 1008.14 1008.84 1009.56 1010.26 1010.92 1011.53 1012.10 1012.67 1013.25 1013.86
1011.41 1011.60 1011.81 1012.10 1012.55 1013.17 1013.92 1014.71 1015.42 1015.90 1016.05 1015.79 1015.12 1014.10 1012.84 1011.49 1010.23 1009.18 1008.43 1008.00 1007.84 1007.88 1007.99 1008.07 1008.03 1007.82 1007.47 1007.03 1006.58 1006.21 1006.02 1006.05 1006.32 1006.81 1007.47 1008.24 1009.04 1009.83 1010.57 1011.25 1011.89 1012.51 1013.13 1013.76
1011.40 1011.57 1011.77 1012.11 1012.63 1013.35 1014.21 1015.12 1015.91 1016.45 1016.60 1016.29 1015.53 1014.39 1013.00 1011.53 1010.17 1009.07 1008.30 1007.88 1007.77 1007.87 1008.03 1008.14 1008.09 1007.84 1007.42 1006.87 1006.29 1005.80 1005.50 1005.45 1005.68 1006.16 1006.85 1007.66 1008.54 1009.42 1010.25 1011.02 1011.73 1012.41 1013.07 1013.73
1011.46 1011.61 1011.82 1012.20 1012.78 1013.59 1014.55 1015.54 1016.40 1016.96 1017.11 1016.75 1015.92 1014.68 1013.18 1011.63 1010.20 1009.04 1008.26 1007.86 1007.78 1007.91 1008.10 1008.22 1008.16 1007.87 1007.37 1006.72 1006.04 1005.44 1005.05 1004.92 1005.10 1005.57 1006.27 1007.14 1008.08 1009.04 1009.95 1010.81 1011.60 1012.34 1013.04 1013.73
1011.57 1011.70 1011.93 1012.34 1012.98 1013.86 1014.88 1015.93 1016.83 1017.40 1017.52 1017.13 1016.23 1014.91 1013.35 1011.73 1010.25 1009.07 1008.28 1007.88 1007.81 1007.96 1008.16 1008.27 1008.18 1007.85 1007.29 1006.57 1005.81 1005.13 1004.66 1004.48 1004.62 1005.07 1005.78 1006.67 1007.67 1008.69 1009.68 1010.60 1011.46 1012.26 1013.02 1013.75
1011.66 1011.79 1012.04 1012.48 1013.18 1014.10 1015.16 1016.23 1017.13 1017.69 1017.78 1017.34 1016.39 1015.04 1013.43 1011.78 1010.29 1009.10 1008.30 1007.90 1007.83 1007.97 1008.15 1008.24 1008.13 1007.76 1007.16 1006.39 1005.59 1004.86 1004.35 1004.13 1004.24 1004.68 1005.39 1006.30 1007.32 1008.38 1009.41 1010.39 1011.30 1012.15 1012.96 1013.74
1011.69 1011.84 1012.11 1012.60 1013.32 1014.26 1015.34 1016.39 1017.26 1017.78 1017.82 1017.34 1016.36 1014.98 1013.37 1011.74 1010.25 1009.08 1008.29 1007.89 1007.81 1007.92 1008.08 1008.14 1007.99 1007.60 1006.98 1006.21 1005.39 1004.66 1004.14 1003.92 1004.02 1004.45 1005.15 1006.06 1007.08 1008.15 1009.20 1010.20 1011.14 1012.03 1012.88 1013.70
1011.63 1011.81 1012.13 1012.64 1013.38 1014.32 1015.36 1016.36 1017.16 1017.60 1017.58 1017.06 1016.06 1014.70 1013.13 1011.54 1010.12 1008.99 1008.23 1007.84 1007.75 1007.83 1007.95 1007.98 1007.81 1007.41 1006.80 1006.05 1005.26 1004.57 1004.09 1003.89 1004.01 1004.43 1005.12 1006.00 1007.00 1008.05 1009.08 1010.08 1011.02 1011.93 1012.80 1013.66
1011.51 1011.74 1012.09 1012.63 1013.36 1014.26 1015.22 1016.12 1016.80 1017.14 1017.04 1016.48 1015.49 1014.17 1012.68 1011.20 1009.88 1008.84 1008.14 1007.78 1007.69 1007.75 1007.84 1007.83 1007.64 1007.25 1006.67 1005.97 1005.26 1004.64 1004.23 1004.08 1004.23 1004.66 1005.34 1006.19 1007.14 1008.14 1009.13 1010.09 1011.01 1011.90 1012.78 1013.66
1011.38 1011.66 1012.06 1012.59 1013.29 1014.09 1014.93 1015.67 1016.20 1016.40 1016.21 1015.61 1014.64 1013.41 1012.04 1010.71 1009.54 1008.65 1008.05 1007.76 1007.68 1007.74 1007.80 1007.77 1007.57 1007.20 1006.66 1006.04 1005.43 1004.91 1004.60 1004.53 1004.73 1005.18 1005.85 1006.66 1007.56 1008.49 1009.42 1010.31 1011.19 1012.05 1012.91 1013.78
1011.33 1011.66 1012.07 1012.58 1013.19 1013.85 1014.51 1015.05 1015.39 1015.42 1015.12 1014.48 1013.56 1012.44 1011.25 1010.12 1009.17 1008.46 1008.01 1007.82 1007.80 1007.87 1007.92 1007.87 1007.68 1007.33 1006.86 1006.33 1005.82 1005.43 1005.23 1005.25 1005.51 1006.00 1006.66 1007.43 1008.28 1009.14 1009.98 1010.81 1011.62 1012.43 1013.25 1014.09
1011.44 1011.79 1012.18 1012.61 1013.09 1013.57 1014.00 1014.30 1014.40 1014.26 1013.84 1013.18 1012.32 1011.35 1010.38 1009.50 1008.80 1008.32 1008.07 1008.01 1008.07 1008.18 1008.24 1008.20 1008.01 1007.70 1007.29 1006.85 1006.46 1006.19 1006.11 1006.23 1006.57 1007.09 1007.75 1008.50 1009.29 1010.08 1010.85 1011.60 1012.34 1013.08 1013.84 1014.63
1011.73 1012.06 1012.39 1012.70 1013.01 1013.26 1013.43 1013.46 1013.32 1012.99 1012.47 1011.79 1011.02 1010.23 1009.50 1008.90 1008.49 1008.27 1008.24 1008.35 1008.52 1008.68 1008.77 1008.74 1008.58 1008.30 1007.95 1007.60 1007.32 1007.17 1007.20 1007.43 1007.83 1008.40 1009.07 1009.80 1010.54 1011.27 1011.98 1012.66 1013.32 1013.99 1014.69 1015.41
1012.16 1012.43 1012.65 1012.82 1012.91 1012.91 1012.80 1012.57 1012.19 1011.69 1011.08 1010.42 1009.75 1009.16 1008.69 1008.39 1008.28 1008.35 1008.55 1008.83 1009.13 1009.36 1009.49 1009.48 1009.34 1009.10 1008.81 1008.54 1008.36 1008.31 1008.45 1008.76 1009.23 1009.83 1010.51 1011.23 1011.94 1012.63 1013.28 1013.90 1014.50 1015.11 1015.73 1016.38
1012.63 1012.81 1012.89 1012.87 1012.74 1012.50 1012.13 1011.65 1011.08 1010.44 1009.78 1009.16 1008.63 1008.24 1008.03 1008.03 1008.21 1008.54 1008.97 1009.42 1009.83 1010.15 1010.32 1010.33 1010.22 1010.01 1009.78 1009.58 1009.48 1009.53 1009.74 1010.13 1010.65 1011.28 1011.98 1012.68 1013.37 1014.03 1014.63 1015.21 1015.76 1016.30 1016.86 1017.44
1013.01 1013.06 1012.98 1012.78 1012.45 1011.98 1011.41 1010.74 1010.03 1009.31 1008.65 1008.10 1007.72 1007.53 1007.57 1007.83 1008.27 1008.83 1009.45 1010.05 1010.56 1010.94 1011.15 1011.20 1011.12 1010.96 1010.78 1010.65 1010.62 1010.73 1011.01 1011.45 1012.01 1012.66 1013.35 1014.05 1014.72 1015.34 1015.92 1016.46 1016.97 1017.46 1017.96 1018.46
1013.15 1013.06 1012.84 1012.47 1011.97 1011.35 1010.64 1009.86 1009.09 1008.36 1007.75 1007.30 1007.07 1007.08 1007.33 1007.80 1008.43 1009.17 1009.93 1010.63 1011.22 1011.65 1011.91 1011.99 1011.95 1011.84 1011.72 1011.65 1011.68 1011.86 1012.19 1012.65 1013.23 1013.88 1014.56 1015.24 1015.88 1016.48 1017.03 1017.54 1018.02 1018.48 1018.92 1019.35
1012.98 1012.76 1012.40 1011.92 1011.32 1010.61 1009.85 1009.05 1008.29 1007.63 1007.11 1006.79 1006.71 1006.88 1007.29 1007.91 1008.68 1009.52 1010.35 1011.12 1011.75 1012.22 1012.50 1012.63 1012.64 1012.59 1012.54 1012.54 1012.63 1012.86 1013.22 1013.71 1014.28 1014.91 1015.57 1016.21 1016.83 1017.40 1017.92 1018.40 1018.85 1019.27 1019.67 1020.05
1012.47 1012.14 1011.70 1011.15 1010.52 1009.81 1009.08 1008.35 1007.69 1007.14 1006.75 1006.58 1006.64 1006.93 1007.45 1008.15 1008.97 1009.84 1010.69 1011.46 1012.10 1012.59 1012.91 1013.08 1013.16 1013.18 1013.21 1013.29 1013.46 1013.73 1014.12 1014.61 1015.16 1015.77 1016.38 1016.98 1017.56 1018.09 1018.58 1019.03 1019.46 1019.85 1020.21 1020.54
1011.71 1011.31 1010.82 1010.27 1009.66 1009.03 1008.40 1007.80 1007.29 1006.90 1006.68 1006.64 1006.81 1007.19 1007.76 1008.47 1009.28 1010.12 1010.93 1011.67 1012.29 1012.77 1013.12 1013.36 1013.51 1013.63 1013.75 1013.92 1014.16 1014.48 1014.89 1015.38 1015.91 1016.47 1017.04 1017.59 1018.11 1018.60 1019.06 1019.49 1019.88 1020.24 1020.57 1020.85
1010.83 1010.39 1009.90 1009.39 1008.87 1008.35 1007.88 1007.46 1007.13 1006.92 1006.85 1006.94 1007.20 1007.62 1008.18 1008.85 1009.59 1010.35 1011.08 1011.75 1012.33 1012.81 1013.19 1013.49 1013.74 1013.96 1014.19 1014.45 1014.77 1015.14 1015.57 1016.05 1016.56 1017.07 1017.59 1018.09 1018.56 1019.01 1019.43 1019.82 1020.19 1020.52 1020.81 1021.06
1009.99 1009.54 1009.09 1008.65 1008.24 1007.87 1007.57 1007.33 1007.19 1007.15 1007.22 1007.42 1007.73 1008.15 1008.67 1009.27 1009.90 1010.55 1011.18 1011.77 1012.31 1012.78 1013.19 1013.56 1013.90 1014.22 1014.56 1014.92 1015.31 1015.73 1016.19 1016.66 1017.14 1017.62 1018.08 1018.53 1018.96 1019.37 1019.76 1020.12 1020.46 1020.76 1021.02 1021.23
1009.35 1008.92 1008.51 1008.15 1007.85 1007.63 1007.49 1007.42 1007.45 1007.55 1007.74 1008.00 1008.34 1008.74 1009.20 1009.70 1010.23 1010.76 1011.29 1011.80 1012.29 1012.76 1013.20 1013.63 1014.06 1014.48 1014.91 1015.36 1015.81 1016.28 1016.75 1017.22 1017.68 1018.12 1018.55 1018.96 1019.36 1019.74 1020.10 1020.44 1020.76 1021.03 1021.26 1021.42
Thickness
5546 5547 5553 5560 5563 5567 5569 5572 5576 5587 5601 5606 5610 5617 5632 5640 5642 5648 5655 5661 5667 5675 5683 5686 5689 5692 5694 5695 5695 5696 5695 5695 5692 5687 5682 5678 5676 5675 5672 5670 5668 5664 5661 5657
5538 5544 5553 5557 5560 5563 5564 5566 5571 5582 5593 5599 5601 5609 5625 5635 5642 5650 5656 5662 5666 5670 5675 5680 5683 5686 5688 5690 5691 5692 5692 5692 5691 5688 5685 5681 5676 5671 5668 5666 5663 5661 5657 5653
5539 5547 5553 5554 5556 5557 5559 5561 5567 5573 5580 5587 5591 5601 5617 5632 5640 5648 5655 5661 5666 5669 5671 5674 5676 5679 5681 5683 5685 5687 5688 5688 5688 5686 5680 5672 5664 5658 5656 5656 5655 5654 5651 5646
5534 5545 5549 5550 5552 5554 5554 5563 5567 5568 5564 5563 5573 5575 5605 5619 5630 5642 5648 5653 5658 5663 5666 5668 5671 5673 5676 5678 5680 5681 5683 5683 5682 5679 5674 5669 5664 5659 5656 5653 5648 5644 5641 5639
5532 5540 5544 5546 5551 5554 5552 5558 5559 5558 5554 5550 5559 5562 5596 5610 5623 5636 5643 5647 5651 5656 5658 5661 5664 5666 5670 5671 5672 5673 5675 5675 5674 5672 5670 5666 5663 5658 5648 5642 5637 5633 5630 5628
5530 5538 5542 5545 5548 5552 5551 5549 5548 5540 5535 5535 5551 5549 5581 5602 5620 5629 5636 5640 5644 5647 5650 5653 5656 5658 5660 5662 5663 5663 5664 5665 5664 5663 5661 5659 5655 5647 5638 5633 5627 5623 5620 5617
5521 5529 5537 5542 5539 5542 5543 5531 5522 5526 5527 5534 5555 5552 5577 5605 5616 5621 5627 5632 5636 5639 5640 5643 5646 5647 5649 5650 5651 5651 5652 5653 5653 5652 5651 5650 5646 5640 5635 5629 5622 5616 5611 5608
5514 5518 5530 5537 5538 5535 5535 5530 5517 5520 5524 5538 5557 5557 5583 5606 5613 5618 5621 5624 5627 5628 5630 5633 5634 5635 5636 5637 5638 5638 5639 5640 5640 5640 5640 5639 5635 5630 5626 5622 5617 5612 5608 5602
5515 5519 5529 5535 5539 5537 5531 5528 5531 5523 5521 5523 5543 5561 5583 5604 5606 5609 5611 5614 5615 5617 5619 5620 5621 5622 5622 5623 5624 5624 5626 5628 5628 5628 5627 5625 5621 5618 5614 5609 5605 5600 5596 5591
5525 5517 5525 5531 5535 5536 5536 5532 5518 5507 5509 5520 5538 5550 5573 5591 5595 5598 5600 5601 5604 5606 5606 5607 5607 5607 5608 5609 5610 5611 5613 5615 5616 5615 5613 5612 5608 5604 5600 5596 5592 5589 5585 5581
5526 5516 5519 5525 5525 5525 5529 5529 5521 5507 5505 5507 5521 5557 5580 5587 5587 5587 5589 5592 5593 5594 5594 5593 5592 5592 5592 5593 5595 5596 5598 5599 5599 5599 5598 5595 5592 5589 5585 5582 5579 5576 5574 5569
5524 5514 5510 5518 5527 5529 5528 5526 5518 5504 5504 5502 5503 5547 5580 5578 5579 5580 5582 5585 5586 5586 5583 5581 5578 5577 5576 5576 5577 5578 5580 5582 5582 5581 5580 5577 5575 5573 5571 5568 5566 5564 5561 5558
5525 5513 5502 5505 5514 5522 5525 5524 5524 5518 5512 5499 5506 5545 5573 5571 5574 5577 5577 5579 5579 5577 5574 5569 5565 5562 5560 5559 5558 5558 5558 5559 5560 5560 5559 5557 5557 5557 5557 5556 5554 5552 5549 5546
5524 5513 5504 5507 5515 5520 5523 5525 5524 5521 5506 5505 5517 5542 5562 5566 5567 5571 5573 5573 5570 5567 5563 5558 5553 5548 5544 5542 5539 5537 5536 5537 5538 5538 5538 5539 5540 5542 5543 5542 5541 5539 5537 5535
5520 5510 5513 5517 5524 5525 5525 5526 5526 5523 5519 5515 5529 5539 5559 5562 5563 5566 5568 5567 5564 5560 5554 5548 5542 5535 5531 5527 5523 5519 5516 5516 5517 5518 5520 5522 5524 5527 5528 5528 5528 5527 5525 5522
5512 5509 5513 5515 5522 5522 5524 5529 5530 5530 5531 5533 5538 5547 5560 5561 5562 5564 5563 5560 5557 5551 5545 5539 5532 5526 5520 5515 5511 5506 5501 5501 5502 5503 5506 5509 5511 5513 5515 5515 5515 5514 5512 5510
5503 5504 5504 5504 5515 5521 5519 5536 5537 5535 5538 5539 5542 5553 5559 5559 5562 5562 5559 5554 5549 5543 5536 5530 5523 5517 5513 5507 5502 5496 5493 5492 5491 5492 5494 5497 5500 5501 5502 5503 5502 5501 5500 5498
5499 5499 5499 5503 5508 5507 5534 5548 5547 5544 5547 5548 5552 5556 5558 5560 5560 5556 5551 5546 5540 5534 5529 5523 5517 5512 5506 5500 5494 5490 5487 5485 5484 5484 5485 5487 5489 5490 5491 5491 5490 5490 5488 5486
5504 5501 5498 5499 5501 5509 5533 5546 5547 5544 5547 5553 5553 5555 5557 5557 5553 5549 5542 5538 5532 5526 5522 5517 5512 5507 5501 5495 5490 5486 5482 5480 5479 5478 5477 5478 5480 5481 5481 5480 5480 5479 5478 5475
5501 5500 5496 5498 5500 5503 5533 5546 5548 5545 5544 5553 5553 5553 5553 5552 5549 5548 5536 5530 5524 5519 5515 5511 5507 5502 5496 5491 5488 5484 5480 5477 5475 5473 5472 5473 5473 5473 5473 5472 5471 5470 5469 5466
5497 5497 5497 5500 5501 5511 5533 5541 5542 5537 5544 5551 5551 5551 5550 5547 5544 5538 5529 5524 5519 5514 5510 5506 5502 5497 5493 5489 5486 5482 5478 5475 5472 5471 5470 5468 5468 5467 5466 5465 5464 5462 5459 5456
5498 5497 5499 5500 5501 5510 5537 5538 5537 5542 5548 5549 5549 5549 5547 5541 5534 5529 5525 5519 5514 5508 5504 5501 5497 5492 5489 5487 5484 5479 5475 5472 5471 5469 5467 5464 5463 5462 5460 5459 5456 5454 5451 5446
5499 5503 5502 5505 5517 5530 5534 5537 5541 5542 5544 5546 5545 5545 5541 5535 5530 5525 5520 5514 5509 5504 5500 5496 5493 5488 5485 5483 5481 5476 5472 5470 5468 5466 5463 5460 5458 5456 5454 5452 5448 5445 5441 5437
5505 5508 5507 5509 5518 5526 5531 5533 5537 5538 5539 5540 5539 5539 5537 5532 5527 5521 5516 5511 5506 5501 5497 5494 5490 5486 5481 5478 5476 5473 5470 5468 5465 5462 5458 5455 5453 5449 5447 5444 5441 5437 5432 5427
5506 5509 5508 5511 5519 5525 5532 5534 5534 5533 5532 5532 5533 5533 5532 5528 5523 5519 5514 5509 5504 5500 5495 5491 5487 5483 5479 5475 5472 5469 5467 5464 5461 5457 5453 5450 5447 5444 5439 5435 5431 5428 5424 5420
5501 5504 5507 5513 5521 5524 5529 5531 5529 5527 5527 5526 5526 5526 5525 5524 5519 5515 5510 5505 5501 5497 5493 5488 5483 5479 5475 5472 5468 5465 5463 5460 5457 5453 5448 5444 5439 5435 5430 5426 5421 5420 5416 5412